Weather History for Pampa, TX

Change the Weather History Date:

Monday, November 26, 2012

  Actual Average Record
Temperature  
Mean Temperature 34 °F -  
Max Temperature 44 °F 57 °F 81 °F (1970)
Min Temperature 23 °F 30 °F 7 °F (1975)
Degree Days  
Heating Degree Days 32    
Moisture  
Dew Point 23 °F    
Average Humidity 65    
Maximum Humidity 86    
Minimum Humidity 42    
Precipitation  
Precipitation 0.00 in - - ()
Sea Level Pressure  
Sea Level Pressure 30.16 in    
Wind  
Wind Speed 11 mph (NNE)    
Max Wind Speed 24 mph    
Max Gust Speed 32 mph    
Visibility 10 miles    
Events      
Averages and records for this station are not official NWS values.
T = Trace of Precipitation, MM = Missing Value Source: NWS Daily Summary

Daily Weather History Graph

Daily Weather History Graph

Search for Another Location

Airport:

Trip Planner

Search our weather history database for the weather conditions in past years. The results will help you decide how hot, cold, wet, or windy it might be!

Date:

Astronomy

Nov. 26, 2012 Rise Set
Actual Time 7:30 AM CST 5:31 PM CST
Civil Twilight 7:03 AM CST 5:59 PM CST
Nautical Twilight 6:31 AM CST 6:30 PM CST
Astronomical Twilight 6:01 AM CST 7:01 PM CST
Moon 4:23 PM CST (11/26) 5:45 AM CST (11/26)
Length of Visible Light 10h 56m
Length of Day
10h 00m
Waxing Gibbous, 97% of the Moon is Illuminated
Nov 26
Waxing Gibbous
Nov 28
Full
Dec 6
Last Quarter
Dec 13
New
Dec 19
First Quarter

Hourly Weather History & Observations

Time (CST) Temp. Windchill Dew Point Humidity Pressure Visibility Wind Dir Wind Speed Gust Speed Precip Events Conditions
12:15 AM 33.8 °F 27.0 °F 24.8 °F 70% 29.86 in 10.0 mi ESE 8.1 mph - N/A   Clear
12:35 AM 37.4 °F 30.8 °F 28.4 °F 70% 29.86 in 10.0 mi ESE 9.2 mph - N/A   Clear
12:55 AM 37.4 °F 30.8 °F 26.6 °F 65% 29.87 in 10.0 mi ESE 9.2 mph - N/A   Clear
1:15 AM 37.4 °F 30.8 °F 26.6 °F 65% 29.86 in 10.0 mi ESE 9.2 mph - N/A   Clear
1:35 AM 35.6 °F 28.6 °F 26.6 °F 70% 29.86 in 10.0 mi East 9.2 mph - N/A   Clear
1:55 AM 35.6 °F 28.6 °F 26.6 °F 70% 29.87 in 10.0 mi ESE 9.2 mph - N/A   Clear
2:15 AM 37.4 °F 30.3 °F 28.4 °F 70% 29.87 in 10.0 mi ESE 10.4 mph - N/A   Clear
2:35 AM 33.8 °F 27.7 °F 26.6 °F 75% 29.89 in 10.0 mi East 6.9 mph - N/A   Clear
2:55 AM 32.0 °F 24.8 °F 24.8 °F 75% 29.89 in 10.0 mi East 8.1 mph - N/A   Clear
3:15 AM 32.0 °F 23.0 °F 24.8 °F 75% 29.90 in 10.0 mi ENE 11.5 mph - N/A   Clear
3:35 AM 32.0 °F 25.6 °F 26.6 °F 80% 29.91 in 10.0 mi NNE 6.9 mph - N/A   Clear
3:55 AM 30.2 °F 24.3 °F 24.8 °F 80% 29.93 in 10.0 mi NNW 5.8 mph - N/A   Clear
4:15 AM 30.2 °F 23.4 °F 24.8 °F 80% 29.93 in 10.0 mi North 6.9 mph - N/A   Clear
4:35 AM 30.2 °F 23.4 °F 24.8 °F 80% 29.94 in 10.0 mi North 6.9 mph - N/A   Clear
4:55 AM 30.2 °F 21.9 °F 23.0 °F 75% 29.95 in 10.0 mi NNW 9.2 mph - N/A   Clear
5:15 AM 30.2 °F 23.4 °F 24.8 °F 80% 29.96 in 10.0 mi North 6.9 mph - N/A   Clear
5:35 AM 28.4 °F 20.4 °F 23.0 °F 80% 29.96 in 10.0 mi North 8.1 mph - N/A   Clear
5:55 AM 28.4 °F 22.2 °F 23.0 °F 80% 29.97 in 10.0 mi North 5.8 mph - N/A   Clear
6:15 AM 28.4 °F 19.1 °F 23.0 °F 80% 29.99 in 10.0 mi NNW 10.4 mph - N/A   Clear
6:35 AM 28.4 °F 22.2 °F 23.0 °F 80% 30.00 in 10.0 mi NNW 5.8 mph - N/A   Clear
6:55 AM 26.6 °F 17.5 °F 23.0 °F 86% 30.02 in 10.0 mi NNW 9.2 mph - N/A   Clear
7:15 AM 26.6 °F 17.5 °F 23.0 °F 86% 30.04 in 10.0 mi NNW 9.2 mph - N/A   Clear
7:35 AM 26.6 °F 18.2 °F 23.0 °F 86% 30.06 in 10.0 mi NNW 8.1 mph - N/A   Clear
7:55 AM 26.6 °F 18.2 °F 23.0 °F 86% 30.07 in 10.0 mi NNW 8.1 mph - N/A   Clear
8:15 AM 28.4 °F 19.1 °F 23.0 °F 80% 30.08 in 10.0 mi NNW 10.4 mph - N/A   Clear
8:35 AM 30.2 °F 21.3 °F 26.6 °F 86% 30.10 in 10.0 mi NNW 10.4 mph - N/A   Clear
8:55 AM 32.0 °F 23.6 °F 26.6 °F 80% 30.12 in 10.0 mi NNW 10.4 mph - N/A   Clear
9:15 AM 32.0 °F 22.5 °F 26.6 °F 80% 30.12 in 10.0 mi North 12.7 mph - N/A   Clear
9:35 AM 32.0 °F 22.1 °F 26.6 °F 80% 30.13 in 10.0 mi North 13.8 mph 23.0 mph N/A   Clear
9:55 AM 33.8 °F 23.9 °F 26.6 °F 75% 30.16 in 10.0 mi North 15.0 mph 21.9 mph N/A   Clear
10:15 AM 35.6 °F 25.9 °F 26.6 °F 70% 30.16 in 10.0 mi North 16.1 mph - N/A   Clear
10:35 AM 35.6 °F 25.9 °F 26.6 °F 70% 30.17 in 10.0 mi North 16.1 mph 20.7 mph N/A   Clear
10:55 AM 37.4 °F 28.2 °F 26.6 °F 65% 30.18 in 10.0 mi North 16.1 mph 23.0 mph N/A   Clear
11:15 AM 39.2 °F 29.3 °F 26.6 °F 61% 30.19 in 10.0 mi North 20.7 mph 26.5 mph N/A   Clear
11:35 AM 41.0 °F 32.5 °F 26.6 °F 57% 30.19 in 10.0 mi North 17.3 mph 27.6 mph N/A   Clear
11:55 AM 41.0 °F 31.4 °F 26.6 °F 57% 30.21 in 10.0 mi North 21.9 mph 28.8 mph N/A   Clear
12:15 PM 42.8 °F 34.3 °F 26.6 °F 53% 30.21 in 10.0 mi NNE 19.6 mph 28.8 mph N/A   Clear
12:35 PM 42.8 °F 34.0 °F 26.6 °F 53% 30.21 in 10.0 mi NNE 20.7 mph 28.8 mph N/A   Clear
12:55 PM 44.6 °F 35.7 °F 26.6 °F 49% 30.21 in 10.0 mi NNE 24.2 mph 27.6 mph N/A   Clear
1:15 PM 44.6 °F 35.7 °F 26.6 °F 49% 30.21 in 10.0 mi NNE 24.2 mph 27.6 mph N/A   Clear
1:35 PM 44.6 °F 35.7 °F 28.4 °F 53% 30.21 in 10.0 mi NNE 24.2 mph 32.2 mph N/A   Clear
1:55 PM 44.6 °F 35.9 °F 28.4 °F 53% 30.22 in 10.0 mi NNE 23.0 mph 31.1 mph N/A   Clear
2:15 PM 44.6 °F 36.4 °F 28.4 °F 53% 30.22 in 10.0 mi NNE 20.7 mph 31.1 mph N/A   Clear
2:35 PM 44.6 °F 35.9 °F 28.4 °F 53% 30.23 in 10.0 mi North 23.0 mph 32.2 mph N/A   Clear
2:55 PM 44.6 °F 36.4 °F 28.4 °F 53% 30.23 in 10.0 mi NNE 20.7 mph 31.1 mph N/A   Clear
3:15 PM 44.6 °F 36.4 °F 26.6 °F 49% 30.25 in 10.0 mi North 20.7 mph 28.8 mph N/A   Clear
3:35 PM 42.8 °F 35.1 °F 26.6 °F 53% 30.25 in 10.0 mi North 16.1 mph 28.8 mph N/A   Clear
3:55 PM 42.8 °F 34.0 °F 23.0 °F 46% 30.26 in 10.0 mi NNE 20.7 mph 28.8 mph N/A   Clear
4:15 PM 42.8 °F 33.8 °F 21.2 °F 42% 30.27 in 10.0 mi NNE 21.9 mph 28.8 mph N/A   Clear
4:35 PM 41.0 °F 32.2 °F 21.2 °F 45% 30.28 in 10.0 mi North 18.4 mph 26.5 mph N/A   Clear
4:55 PM 39.2 °F 30.5 °F 19.4 °F 45% 30.29 in 10.0 mi NNE 16.1 mph 25.3 mph N/A   Clear
5:15 PM 37.4 °F 27.5 °F 21.2 °F 52% 30.29 in 10.0 mi North 18.4 mph 23.0 mph N/A   Clear
5:35 PM 35.6 °F 26.2 °F 19.4 °F 52% 30.30 in 10.0 mi NNE 15.0 mph - N/A   Clear
5:55 PM 35.6 °F 26.6 °F 17.6 °F 48% 30.31 in 10.0 mi NNE 13.8 mph - N/A   Clear
6:15 PM 33.8 °F 26.4 °F 17.6 °F 52% 30.32 in 10.0 mi NNE 9.2 mph - N/A   Clear
6:35 PM 33.8 °F 26.4 °F 17.6 °F 52% 30.34 in 10.0 mi NNE 9.2 mph - N/A   Clear
6:55 PM 32.0 °F 24.2 °F 17.6 °F 55% 30.34 in 10.0 mi NNE 9.2 mph - N/A   Clear
7:15 PM 32.0 °F 25.6 °F 17.6 °F 55% 30.35 in 10.0 mi NNE 6.9 mph - N/A   Clear
7:35 PM 32.0 °F 25.6 °F 15.8 °F 51% 30.36 in 10.0 mi NNE 6.9 mph - N/A   Clear
7:55 PM 30.2 °F 24.3 °F 15.8 °F 55% 30.37 in 10.0 mi NNE 5.8 mph - N/A   Clear
8:15 PM 30.2 °F 23.4 °F 15.8 °F 55% 30.38 in 10.0 mi NNE 6.9 mph - N/A   Clear
8:35 PM 28.4 °F 22.2 °F 15.8 °F 59% 30.38 in 10.0 mi NNE 5.8 mph - N/A   Clear
8:55 PM 26.6 °F 19.1 °F 14.0 °F 59% 30.39 in 10.0 mi NNE 6.9 mph - N/A   Clear
9:15 PM 26.6 °F 20.0 °F 14.0 °F 59% 30.40 in 10.0 mi NNE 5.8 mph - N/A   Clear
9:35 PM 26.6 °F 20.0 °F 14.0 °F 59% 30.40 in 10.0 mi NNE 5.8 mph - N/A   Clear
9:55 PM 26.6 °F 19.1 °F 14.0 °F 59% 30.40 in 10.0 mi NE 6.9 mph - N/A   Clear
10:15 PM 26.6 °F 20.0 °F 14.0 °F 59% 30.40 in 10.0 mi NE 5.8 mph - N/A   Clear
10:35 PM 26.6 °F 18.2 °F 14.0 °F 59% 30.41 in 10.0 mi NE 8.1 mph - N/A   Clear
10:55 PM 26.6 °F 18.2 °F 15.8 °F 64% 30.40 in 10.0 mi NE 8.1 mph - N/A   Clear
11:15 PM 26.6 °F 19.1 °F 17.6 °F 69% 30.40 in 10.0 mi NNE 6.9 mph - N/A   Clear
11:35 PM 23.0 °F 15.8 °F 14.0 °F 68% 30.41 in 10.0 mi North 5.8 mph - N/A   Clear
11:55 PM 23.0 °F 14.7 °F 14.0 °F 68% 30.43 in 10.0 mi North 6.9 mph - N/A   Clear